Pagina principale
METAR-TAF:

METAR-TAF

Aeroporti :

Air Force Base Langebaanweg

Langebaan, Sudafrica

latitudine: 32-58-08S, longitudine: 018-09-55E, altezza: 33 m

Osservazione

Il bollettino è stato emesso 1 ora e 7 minuti fa, alle 18:00 UTC
Vento 5 kt da nord/nord-ovest
Temperature 21°C
Umidità 73%
Pressione 1012 hPa

METAR: FALW 161800Z AUTO 33005KT //// // ////// 21/16 Q1012

Ora: 21:07 (19:07 UTC)


TAF: mancante

Osservazioni e previsioni meteorologiche di più di 4000 aeroporti (messaggi METAR e TAF).

Le stazioni disponibili sono rappresentate dai dischi gialli e rossi sulla carta.

Puntare il mouse per vedere il nome della stazione.

Clicca sopra per visualizzare le osservazioni e previsioni meteorologiche.

Per cambiare la mappa : fare clic sui pulsanti verdi con una croce nera per ingrandire, il pulsante verde con un trattino per diminuire, o sulla freccia verde per le mappe adiacenti.


METAR-TAF: